LHX71B EDDH-EBBR

Flight info

Callsign LHX71B
Flight time N/A
Altitude 38000
Route WOODY WOODY9AXANT2H/25L
Aircraft A319/M-SDE3FGHIRWY/LB1

Departure

Time N/A
Airport Hamburg Helmut Schmidt Airport (EDDH)

Arrival

Time 2026-05-06 16:53
Airport Brussels Airport (EBBR)
Time Latitude Longitude Altitude Speed Heading
2026-05-06 16:42 51.50016 4.77759 19267 ft 361 kts 211°
2026-05-06 16:42 51.47876 4.75635 18664 ft 363 kts 211°
2026-05-06 16:42 51.45722 4.73499 18052 ft 365 kts 211°
2026-05-06 16:43 51.43558 4.71358 17374 ft 367 kts 211°
2026-05-06 16:43 51.41383 4.69208 16707 ft 368 kts 211°
2026-05-06 16:43 51.39204 4.67052 16048 ft 368 kts 211°
2026-05-06 16:43 51.37022 4.64891 15410 ft 369 kts 211°
2026-05-06 16:44 51.34798 4.62850 14804 ft 369 kts 202°
2026-05-06 16:44 51.32322 4.61927 14197 ft 366 kts 181°
2026-05-06 16:44 51.29823 4.62476 13587 ft 363 kts 160°
2026-05-06 16:44 51.27617 4.64357 12920 ft 359 kts 144°
2026-05-06 16:45 51.25589 4.66656 12268 ft 358 kts 143°
2026-05-06 16:45 51.23581 4.68973 11636 ft 356 kts 143°
2026-05-06 16:45 51.21604 4.71271 11016 ft 353 kts 143°
2026-05-06 16:45 51.19630 4.73582 10397 ft 350 kts 143°
2026-05-06 16:46 51.17677 4.75879 9789 ft 347 kts 143°
2026-05-06 16:46 51.15744 4.78162 9126 ft 345 kts 143°
2026-05-06 16:46 51.13824 4.80428 8473 ft 342 kts 143°
2026-05-06 16:46 51.11920 4.82667 7828 ft 339 kts 143°
2026-05-06 16:47 51.10029 4.84883 7197 ft 337 kts 143°
2026-05-06 16:47 51.08147 4.87078 6578 ft 334 kts 143°
2026-05-06 16:47 51.06274 4.89255 5946 ft 332 kts 142°
2026-05-06 16:47 51.04422 4.91388 5387 ft 326 kts 143°
2026-05-06 16:48 51.02560 4.93339 4903 ft 315 kts 153°
2026-05-06 16:48 51.00495 4.94113 4473 ft 299 kts 180°
2026-05-06 16:48 50.98581 4.93258 4159 ft 279 kts 214°
2026-05-06 16:48 50.97393 4.91031 3854 ft 258 kts 251°
2026-05-06 16:49 50.97260 4.88341 3554 ft 239 kts 283°
2026-05-06 16:49 50.97454 4.85749 3245 ft 239 kts 266°
2026-05-06 16:49 50.97004 4.83211 2952 ft 240 kts 252°
2026-05-06 16:49 50.96408 4.80734 2644 ft 239 kts 252°
2026-05-06 16:50 50.95832 4.78265 2337 ft 238 kts 253°
2026-05-06 16:50 50.95269 4.75795 2054 ft 237 kts 253°
2026-05-06 16:50 50.94710 4.73343 2000 ft 236 kts 253°
2026-05-06 16:50 50.94152 4.70894 2006 ft 237 kts 253°
2026-05-06 16:51 50.93589 4.68430 2011 ft 236 kts 253°
2026-05-06 16:51 50.93046 4.66062 1967 ft 223 kts 253°
2026-05-06 16:51 50.92521 4.63771 1746 ft 221 kts 253°
2026-05-06 16:51 50.91996 4.61477 1448 ft 220 kts 253°
2026-05-06 16:52 50.91484 4.59251 1147 ft 208 kts 253°
2026-05-06 16:52 50.91012 4.57201 857 ft 190 kts 253°
2026-05-06 16:52 50.90587 4.55361 619 ft 165 kts 253°
2026-05-06 16:52 50.90218 4.53751 389 ft 149 kts 255°
2026-05-06 16:53 50.89873 4.52254 219 ft 140 kts 255°
2026-05-06 16:53 50.89578 4.50954 175 ft 110 kts 250°
2026-05-06 16:53 50.89373 4.50073 177 ft 60 kts 250°
2026-05-06 16:53 50.89342 4.49737 177 ft 12 kts 293°
2026-05-06 16:54 50.89398 4.49614 169 ft 10 kts 306°
2026-05-06 16:54 50.89400 4.49610 169 ft 0 kts 306°
2026-05-06 16:55 50.89401 4.49609 169 ft 1 kts 306°
2026-05-06 16:55 50.89434 4.49537 167 ft 15 kts 307°
2026-05-06 16:55 50.89503 4.49393 164 ft 15 kts 307°
2026-05-06 16:56 50.89573 4.49250 157 ft 16 kts 319°
2026-05-06 16:56 50.89686 4.49279 150 ft 19 kts 14°
2026-05-06 16:56 50.89833 4.49340 141 ft 25 kts 15°
2026-05-06 16:56 50.90015 4.49417 132 ft 29 kts 12°
2026-05-06 16:57 50.90166 4.49474 127 ft 21 kts 14°
2026-05-06 16:57 50.90306 4.49533 124 ft 21 kts 15°
2026-05-06 16:57 50.90435 4.49566 124 ft 16 kts 337°
2026-05-06 16:57 50.90428 4.49413 123 ft 16 kts 245°
2026-05-06 16:58 50.90380 4.49248 124 ft 17 kts 245°
2026-05-06 16:58 50.90331 4.49079 122 ft 13 kts 245°
2026-05-06 16:58 50.90360 4.49016 122 ft 9 kts 337°
2026-05-06 16:58 50.90399 4.48989 121 ft 1 kts 335°
2026-05-06 16:59 50.90400 4.48988 120 ft 0 kts 335°